�N����,����,����,����,����,�C��,���x,�~����,�S�V����,�ő�u�ԕ���,,,,,
,,,,,,,,,����,����,����,�N��,,
yyyy/mm/dd,hh:mm:ss,(16),16����,m/s,��,%,mm,KW/�u,(16),16����,m/s,Time,,
2016/12/1,1:00:00,14,�k��,1.9,-3.2,75.8,0,0,14,�k��,3.9,39,,
2016/12/1,2:00:00,13,���k��,1.1,-3.1,74.3,0,0,13,���k��,3.3,2,,
2016/12/1,3:00:00,14,�k��,2.1,-2.8,75.9,0,0,12,��,3.8,24,,
2016/12/1,4:00:00,13,���k��,2.2,-2.6,73.7,0,0,13,���k��,3.4,2,,
2016/12/1,5:00:00,15,�k�k��,0.9,-2.6,74.4,0,0,14,�k��,16.7,55,,
2016/12/1,6:00:00,13,���k��,2.2,-2,76.7,0,0,13,���k��,4.7,46,,
2016/12/1,7:00:00,13,���k��,4.4,-2.4,87.9,0,0.01,16,�k,6.8,58,,
2016/12/1,8:00:00,14,�k��,3.6,-1.8,88.7,0,0.04,7,��쓌,7.4,43,,
2016/12/1,9:00:00,13,���k��,3.8,-1.1,87.8,0,0.08,13,���k��,7.4,48,,
2016/12/1,10:00:00,14,�k��,2.6,-0.8,88,0,0.08,14,�k��,5.9,6,,
2016/12/1,11:00:00,15,�k�k��,1.4,-0.3,88.8,0.5,0.09,13,���k��,5.3,12,,
2016/12/1,12:00:00,14,�k��,0.7,0.2,91,2.5,0.07,14,�k��,7.3,42,,
2016/12/1,13:00:00,13,���k��,1.9,0.4,92.4,2.5,0.04,13,���k��,3.9,7,,
2016/12/1,14:00:00,15,�k�k��,1.5,0.5,93.6,1.5,0.05,14,�k��,4,12,,
2016/12/1,15:00:00,14,�k��,0.5,0.7,94.4,3.5,0.03,2,�k��,3.5,21,,
2016/12/1,16:00:00,14,�k��,1.9,0.7,94.5,1.5,0.01,4,��,3.7,54,,
2016/12/1,17:00:00,12,��,1.5,0.8,95.1,0,0,14,�k��,3.6,31,,
2016/12/1,18:00:00,15,�k�k��,1,0.9,95.2,0,0,14,�k��,5.8,38,,
2016/12/1,19:00:00,15,�k�k��,2.3,0.7,95.5,0,0,15,�k�k��,4.9,52,,
2016/12/1,20:00:00,4,��,0.7,-1.3,94.2,0,0,16,�k,3.8,5,,
2016/12/1,21:00:00,3,���k��,1.3,-2.2,95.1,0,0,3,���k��,3,0,,
2016/12/1,22:00:00,12,��,2.2,-0.5,96.9,0,0,1,�k�k��,4.3,20,,
2016/12/1,23:00:00,12,��,8.3,4.3,98.2,0,0,12,��,12.2,52,,
2016/12/1,0:00:00,12,��,8.3,5.3,72.8,0,0,12,��,16.1,59,,
2016/12/2,1:00:00,11,���쐼,7.2,4.6,58.2,0,0,11,���쐼,15.4,48,,
2016/12/2,2:00:00,11,���쐼,9.9,4.9,41.5,0,0,12,��,16.9,53,,
2016/12/2,3:00:00,12,��,9.4,1.1,70.9,0,0,11,���쐼,15.8,0,,
2016/12/2,4:00:00,10,�쐼,2.7,0.5,87.5,0,0,11,���쐼,12.3,6,,
2016/12/2,5:00:00,13,���k��,0.7,-0.2,87.9,0,0,10,�쐼,9.3,23,,
2016/12/2,6:00:00,10,�쐼,1.5,-3.1,90.6,0,0,8,��,3.4,39,,
2016/12/2,7:00:00,16,�k,0.6,-2.4,81.5,0,0.01,9,��쐼,5.3,21,,
2016/12/2,8:00:00,12,��,4.9,3.5,56.1,0,0.09,12,��,11.5,32,,
2016/12/2,9:00:00,12,��,9.1,4.5,45,0,0.24,12,��,13.8,59,,
2016/12/2,10:00:00,11,���쐼,10.6,3.6,51.5,0,0.4,12,��,17.5,49,,
2016/12/2,11:00:00,11,���쐼,8.8,3.8,55.2,0,0.5,12,��,17.4,28,,
2016/12/2,12:00:00,11,���쐼,10.4,1.6,65.8,0,0.33,11,���쐼,15.3,59,,
2016/12/2,13:00:00,11,���쐼,9.2,1.5,72.8,0,0.15,10,�쐼,14.8,42,,
2016/12/2,14:00:00,11,���쐼,8.2,2.4,57.1,0,0.31,11,���쐼,15.7,11,,
2016/12/2,15:00:00,11,���쐼,9,1.1,60.4,0,0.18,12,��,14.6,51,,
2016/12/2,16:00:00,11,���쐼,9.3,1.3,57.4,0,0.02,11,���쐼,14.5,57,,
2016/12/2,17:00:00,11,���쐼,9.8,1.6,46.7,0,0,12,��,15.8,4,,
2016/12/2,18:00:00,11,���쐼,5.2,0.8,49.2,0,0,11,���쐼,16.3,8,,
2016/12/2,19:00:00,12,��,5.4,1.1,48.1,0,0,12,��,10.9,37,,
2016/12/2,20:00:00,11,���쐼,5.4,1.1,49.4,0,0,12,��,12.8,9,,
2016/12/2,21:00:00,12,��,9,1.5,47.7,0,0,12,��,13.7,26,,
2016/12/2,22:00:00,11,���쐼,6.1,1.3,47.5,0,0,11,���쐼,12.1,48,,
2016/12/2,23:00:00,11,���쐼,7,1.6,46.9,0,0,12,��,12.3,30,,
2016/12/2,0:00:00,11,���쐼,6.1,1.3,48.6,0,0,11,���쐼,12.9,35,,
2016/12/3,1:00:00,11,���쐼,6.1,1.1,47.2,0,0,12,��,11.1,50,,
2016/12/3,2:00:00,12,��,6.2,0.9,46,0,0,12,��,12.2,44,,
2016/12/3,3:00:00,12,��,4.6,0.9,43.3,0,0,12,��,10.9,19,,
2016/12/3,4:00:00,2,�k��,2.1,-0.3,40.4,0,0,12,��,8.1,9,,
2016/12/3,5:00:00,13,���k��,3.9,0.9,44,0,0,12,��,8.5,58,,
2016/12/3,6:00:00,7,��쓌,2,0.7,41.3,0,0,15,�k�k��,8.9,19,,
2016/12/3,7:00:00,12,��,3.8,0.7,42.9,0,0.01,11,���쐼,10,41,,
2016/12/3,8:00:00,16,�É�,0.1,1.1,44.4,0,0.13,11,���쐼,4.4,2,,
2016/12/3,9:00:00,6,�쓌,4.5,4.6,30.7,0,0.29,6,�쓌,7.2,57,,
2016/12/3,10:00:00,5,���쓌,5,5.2,37.2,0,0.42,5,���쓌,8.3,54,,
2016/12/3,11:00:00,5,���쓌,4.5,5.4,38.4,0,0.5,4,��,8.3,7,,
2016/12/3,12:00:00,5,���쓌,2,5.7,29.9,0,0.52,5,���쓌,6.1,13,,
2016/12/3,13:00:00,8,��,1.5,6.1,25,0,0.47,4,��,3.9,21,,
2016/12/3,14:00:00,8,��,1.8,5.7,26.3,0,0.37,8,��,3.4,43,,
2016/12/3,15:00:00,6,�쓌,1.1,5.8,27.1,0,0.22,7,��쓌,2.7,16,,
2016/12/3,16:00:00,1,�k�k��,0.3,1.9,40.5,0,0.06,6,�쓌,1.6,0,,
2016/12/3,17:00:00,12,��,2,-3,55.8,0,0,12,��,2.3,56,,
2016/12/3,18:00:00,12,��,2.6,-2.9,75.4,0,0,12,��,3.3,57,,
2016/12/3,19:00:00,12,��,2.1,-3.3,75.8,0,0,12,��,3.7,8,,
2016/12/3,20:00:00,12,��,2.5,-3.5,78.6,0,0,12,��,3.3,52,,
2016/12/3,21:00:00,12,��,2.5,-3.8,78.8,0,0,5,���쓌,4.1,17,,
2016/12/3,22:00:00,13,���k��,2,-6,78.1,0,0,13,���k��,3.8,7,,
2016/12/3,23:00:00,13,���k��,2.2,-4.3,80.3,0,0,16,�k,4.7,41,,
2016/12/3,0:00:00,13,���k��,1.1,-5.7,79.2,0,0,12,��,3.6,1,,
2016/12/4,1:00:00,12,��,4,-3.2,79,0,0,12,��,5.7,44,,
2016/12/4,2:00:00,14,�k��,1.1,-6.8,76.9,0,0,13,���k��,4.1,0,,
2016/12/4,3:00:00,13,���k��,3.2,-2.2,89.8,0,0,14,�k��,5,53,,
2016/12/4,4:00:00,13,���k��,1.4,-5.7,74.1,0,0,14,�k��,4.6,9,,
2016/12/4,5:00:00,12,��,1.1,-5.6,81.6,0,0,12,��,3.4,13,,
2016/12/4,6:00:00,12,��,2.6,-6.1,84.8,0,0,12,��,3.4,59,,
2016/12/4,7:00:00,13,���k��,1.2,-4.9,90.1,0,0.01,13,���k��,3.8,10,,
2016/12/4,8:00:00,13,���k��,2.4,-1,80,0,0.13,13,���k��,4.9,42,,
2016/12/4,9:00:00,11,���쐼,0.5,2.4,60.1,0,0.28,12,��,3.9,12,,
2016/12/4,10:00:00,2,�k��,0.6,4.6,48.8,0,0.31,16,�k,2.5,45,,
2016/12/4,11:00:00,3,���k��,1,6.8,51,0,0.36,4,��,3.2,11,,
2016/12/4,12:00:00,3,���k��,0.8,6.5,62.3,0,0.19,2,�k��,3.3,45,,
2016/12/4,13:00:00,10,�쐼,9.1,10.4,61.1,0,0.18,10,�쐼,12.5,55,,
2016/12/4,14:00:00,10,�쐼,5.6,11.3,56.1,0,0.39,10,�쐼,12.3,3,,
2016/12/4,15:00:00,10,�쐼,5,10.6,60,0,0.17,10,�쐼,8,40,,
2016/12/4,16:00:00,9,��쐼,3,9.6,66.3,0,0.03,10,�쐼,8.6,12,,
2016/12/4,17:00:00,9,��쐼,2.7,9.7,69.2,0,0,9,��쐼,5,0,,
2016/12/4,18:00:00,8,��,2.4,9.1,72.6,0,0,8,��,4.7,52,,
2016/12/4,19:00:00,8,��,2.6,9.5,72.8,0,0,8,��,5.5,35,,
2016/12/4,20:00:00,7,��쓌,1.8,4.5,71.5,0,0,7,��쓌,3.8,12,,
2016/12/4,21:00:00,6,�쓌,1.5,7.8,81.5,0,0,8,��,3.9,10,,
2016/12/4,22:00:00,8,��,2,9.8,76.1,0,0,7,��쓌,4.4,37,,
2016/12/4,23:00:00,9,��쐼,1,3.3,73,0,0,8,��,3.7,25,,
2016/12/4,0:00:00,13,���k��,0.4,2,78.6,0,0,8,��,2,1,,
2016/12/5,1:00:00,11,���쐼,1,2.6,87.7,0,0,12,��,3.3,41,,
2016/12/5,2:00:00,2,�k��,1.8,3.7,88.9,0,0,4,��,7.7,48,,
2016/12/5,3:00:00,14,�k��,2.2,4.9,87.6,0,0,13,���k��,5.3,35,,
2016/12/5,4:00:00,14,�k��,0.8,4.8,79.3,0,0,13,���k��,6.9,25,,
2016/12/5,5:00:00,11,���쐼,1.8,1.8,80.5,0,0,5,���쓌,3.6,19,,
2016/12/5,6:00:00,3,���k��,1,0.6,84.9,0,0,13,���k��,3,6,,
2016/12/5,7:00:00,14,�k��,2.1,2.7,91.1,0,0.01,13,���k��,3.3,53,,
2016/12/5,8:00:00,13,���k��,1.7,3.6,95.2,0,0.04,14,�k��,3.3,52,,
2016/12/5,9:00:00,12,��,1.1,4.3,93.4,0,0.07,9,��쐼,2.8,41,,
2016/12/5,10:00:00,5,���쓌,1.1,6.2,86.9,0,0.1,5,���쓌,1.9,52,,
2016/12/5,11:00:00,14,�k��,2.6,6.2,81.7,0,0.09,13,���k��,4.1,56,,
2016/12/5,12:00:00,14,�k��,2.4,6.3,89.8,0.5,0.08,14,�k��,6.2,39,,
2016/12/5,13:00:00,16,�k,0.7,7.4,92.2,0.5,0.13,15,�k�k��,4.2,10,,
2016/12/5,14:00:00,14,�k��,3.2,7.2,85.7,0,0.15,14,�k��,5.7,55,,
2016/12/5,15:00:00,15,�k�k��,2.1,7.1,78,0,0.22,13,���k��,5.1,5,,
2016/12/5,16:00:00,13,���k��,2.6,4.6,80.9,0,0.05,12,��,4,3,,
2016/12/5,17:00:00,14,�k��,0.8,3.6,89.9,0,0,13,���k��,3.3,16,,
2016/12/5,18:00:00,13,���k��,1,1.7,90.6,0,0,15,�k�k��,1.8,41,,
2016/12/5,19:00:00,16,�É�,0,1.4,91.8,0,0,14,�k��,2.7,28,,
2016/12/5,20:00:00,12,��,1.7,0.4,92.8,0,0,12,��,2.4,52,,
2016/12/5,21:00:00,16,�É�,0.1,0.2,93.3,0,0,12,��,2.4,23,,
2016/12/5,22:00:00,13,���k��,1.9,1.1,94.3,0,0,8,��,2.7,56,,
2016/12/5,23:00:00,13,���k��,1,1,93.3,0,0,13,���k��,2.9,1,,
2016/12/5,0:00:00,13,���k��,1,1.1,92.5,0,0,12,��,2.1,49,,
2016/12/6,1:00:00,12,��,1,0.7,92.4,0,0,12,��,1.5,53,,
2016/12/6,2:00:00,16,�É�,0,1.1,93,0,0,12,��,1.7,2,,
2016/12/6,3:00:00,1,�k�k��,1.8,2,94.1,0,0,1,�k�k��,2.9,54,,
2016/12/6,4:00:00,16,�É�,0,1.5,94,0,0,1,�k�k��,2.5,0,,
2016/12/6,5:00:00,13,���k��,1.3,1.6,94.1,1.5,0,12,��,2.5,59,,
2016/12/6,6:00:00,12,��,2.3,2.3,95.5,1.5,0,10,�쐼,4.2,37,,
2016/12/6,7:00:00,14,�k��,1.4,2.5,96.2,0.5,0,6,�쓌,4.9,9,,
2016/12/6,8:00:00,13,���k��,2.9,2,95.2,0.5,0.01,14,�k��,5.2,21,,
2016/12/6,9:00:00,14,�k��,3.3,1.9,95.4,0,0.04,14,�k��,5.2,55,,
2016/12/6,10:00:00,13,���k��,3,2.6,95.4,0,0.1,13,���k��,5.3,47,,
2016/12/6,11:00:00,14,�k��,6.7,2.1,90,0,0.22,14,�k��,13.1,54,,
2016/12/6,12:00:00,13,���k��,3.7,3.6,79.6,0,0.46,13,���k��,13,7,,
2016/12/6,13:00:00,14,�k��,6.1,3.3,63.8,0,0.46,14,�k��,10.9,53,,
2016/12/6,14:00:00,15,�k�k��,6.7,2.7,53.3,0,0.36,2,�k��,12.4,4,,
2016/12/6,15:00:00,14,�k��,7.4,1.7,53.6,0,0.1,14,�k��,13.4,28,,
2016/12/6,16:00:00,14,�k��,7.4,0.8,53.1,0,0.02,14,�k��,15.8,50,,
2016/12/6,17:00:00,14,�k��,5.9,-0.7,64.7,0,0,14,�k��,14.4,1,,
2016/12/6,18:00:00,14,�k��,5.2,-1.3,58.7,0,0,15,�k�k��,11.1,5,,
2016/12/6,19:00:00,13,���k��,4,-2.1,47.5,0,0,12,��,9.2,33,,
2016/12/6,20:00:00,15,�k�k��,2.8,-3.4,52.9,0,0,13,���k��,8.3,2,,
2016/12/6,21:00:00,15,�k�k��,3.1,-4.1,60.1,0,0,14,�k��,6.3,17,,
2016/12/6,22:00:00,15,�k�k��,3.2,-4.7,66,0,0,15,�k�k��,8.3,0,,
2016/12/6,23:00:00,14,�k��,2.8,-6.1,69.3,0,0,4,��,7.1,39,,
2016/12/6,0:00:00,12,��,2.4,-7.5,72.1,0,0,14,�k��,4.5,22,,
2016/12/7,1:00:00,13,���k��,1.5,-7.3,76.4,0,0,14,�k��,3.3,8,,
2016/12/7,2:00:00,15,�k�k��,0.9,-9.4,75.6,0,0,13,���k��,2.7,5,,
2016/12/7,3:00:00,13,���k��,1.5,-10.2,81.6,0,0,12,��,2.7,39,,
2016/12/7,4:00:00,13,���k��,0.6,-11.4,83.8,0,0,12,��,3.2,8,,
2016/12/7,5:00:00,13,���k��,2.1,-11.5,88,0,0,12,��,3.3,32,,
2016/12/7,6:00:00,13,���k��,1.5,-11.1,88.8,0,0,12,��,2.7,48,,
2016/12/7,7:00:00,12,��,2,-11,89.3,0,0.01,12,��,2.7,49,,
2016/12/7,8:00:00,12,��,1.8,-8.3,86.4,0,0.13,11,���쐼,4,7,,
2016/12/7,9:00:00,16,�É�,0.1,-5,56.1,0,0.31,12,��,2.5,7,,
2016/12/7,10:00:00,12,��,1.1,-3,29.2,0,0.43,11,���쐼,2.8,56,,
2016/12/7,11:00:00,8,��,0.4,-1.6,25,0,0.51,13,���k��,2.6,16,,
2016/12/7,12:00:00,15,�k�k��,2.2,-1.4,21.9,0,0.52,1,�k�k��,3.3,58,,
2016/12/7,13:00:00,10,�쐼,1,-1.6,24,0,0.48,11,���쐼,3.5,47,,
2016/12/7,14:00:00,1,�k�k��,1,-1.2,23.9,0,0.38,13,���k��,3.8,16,,
2016/12/7,15:00:00,2,�k��,0.7,-1.8,26.5,0,0.23,13,���k��,2.5,3,,
2016/12/7,16:00:00,16,�k,0.7,-3.5,33.5,0,0.06,16,�k,1.5,44,,
2016/12/7,17:00:00,11,���쐼,0.6,-5.5,47.9,0,0,11,���쐼,2,36,,
2016/12/7,18:00:00,16,�É�,0,-7.7,59.8,0,0,15,�k�k��,2.3,5,,
2016/12/7,19:00:00,13,���k��,0.5,-9.3,65.3,0,0,12,��,2.5,27,,
2016/12/7,20:00:00,12,��,1.1,-10,75,0,0,13,���k��,2.5,21,,
2016/12/7,21:00:00,13,���k��,1.2,-10.8,75.8,0,0,12,��,2.5,13,,
2016/12/7,22:00:00,12,��,0.9,-11.4,78,0,0,13,���k��,2.3,7,,
2016/12/7,23:00:00,13,���k��,1.9,-10.8,81.5,0,0,13,���k��,3.1,52,,
2016/12/7,0:00:00,13,���k��,2.4,-11.1,79.9,0,0,12,��,5.1,12,,
2016/12/8,1:00:00,13,���k��,1.8,-11,82.6,0,0,11,���쐼,3.2,19,,
2016/12/8,2:00:00,13,���k��,2.5,-11.1,80.7,0,0,13,���k��,4.8,49,,
2016/12/8,3:00:00,13,���k��,2.5,-10.4,73.5,0,0,7,��쓌,5.2,39,,
2016/12/8,4:00:00,12,��,2.5,-10.9,74.5,0,0,14,�k��,4.2,0,,
2016/12/8,5:00:00,13,���k��,2.5,-9.6,72.7,0,0,13,���k��,3.7,58,,
2016/12/8,6:00:00,13,���k��,2.5,-9.8,69.4,0,0.01,13,���k��,4.6,50,,
2016/12/8,7:00:00,12,��,2.5,-10.1,70.8,0,0.01,13,���k��,4.3,48,,
2016/12/8,8:00:00,12,��,2.4,-7.3,65.1,0,0.12,12,��,5.4,23,,
2016/12/8,9:00:00,11,���쐼,1,-4.4,54.5,0,0.29,12,��,4.7,14,,
2016/12/8,10:00:00,9,��쐼,0.9,-0.1,33.5,0,0.42,10,�쐼,3.8,33,,
2016/12/8,11:00:00,12,��,1.7,0.5,28.7,0,0.5,11,���쐼,5.2,42,,
2016/12/8,12:00:00,11,���쐼,2.5,1.8,30.7,0,0.52,12,��,7.8,34,,
2016/12/8,13:00:00,1,�k�k��,3.2,1.4,35.7,0,0.47,11,���쐼,6.5,19,,
2016/12/8,14:00:00,3,���k��,3.9,0.5,43.3,0,0.37,3,���k��,7.4,12,,
2016/12/8,15:00:00,3,���k��,3,-0.2,43.7,0,0.22,4,��,5.3,21,,
2016/12/8,16:00:00,3,���k��,2,-3.5,45.8,0,0.06,3,���k��,3.9,0,,
2016/12/8,17:00:00,12,��,0.9,-5.9,53.8,0,0,13,���k��,2,34,,
2016/12/8,18:00:00,13,���k��,0.8,-7.8,66.9,0,0,12,��,1.7,48,,
2016/12/8,19:00:00,12,��,1.6,-8.3,75.4,0,0,11,���쐼,2.7,45,,
2016/12/8,20:00:00,12,��,1.9,-8.4,78.5,0,0,12,��,3.1,35,,
2016/12/8,21:00:00,13,���k��,1.6,-8.6,80.7,0,0,12,��,4.6,49,,
2016/12/8,22:00:00,12,��,2.4,-9.1,82.3,0,0,12,��,3.9,11,,
2016/12/8,23:00:00,11,���쐼,1.7,-9.2,83.7,0,0,12,��,3,29,,
2016/12/8,0:00:00,12,��,2.6,-10.3,85.4,0,0,13,���k��,4,10,,
2016/12/9,1:00:00,12,��,2.8,-9.1,87.3,0,0,12,��,3.5,35,,
2016/12/9,2:00:00,12,��,2.3,-8.5,88.3,0,0,12,��,3.4,35,,
2016/12/9,3:00:00,12,��,2.5,-8.4,87.2,0,0,12,��,3.7,47,,
2016/12/9,4:00:00,12,��,2.8,-6.8,88.8,0,0,12,��,5.2,22,,
2016/12/9,5:00:00,13,���k��,0.8,-6.2,88.3,0,0,12,��,3,12,,
2016/12/9,6:00:00,14,�k��,0.4,-5.8,88.1,0,0,12,��,1.7,48,,
2016/12/9,7:00:00,13,���k��,1.9,-4.4,79.2,0,0.01,13,���k��,3.3,42,,
2016/12/9,8:00:00,13,���k��,2.2,-3.9,75.9,0,0.04,13,���k��,3.7,5,,
2016/12/9,9:00:00,13,���k��,2.1,-3.3,78.8,0,0.05,13,���k��,3.3,57,,
2016/12/9,10:00:00,14,�k��,2.6,-3.4,90.4,0,0.04,13,���k��,4.7,37,,
2016/12/9,11:00:00,14,�k��,2.4,-2.9,93.9,0,0.06,14,�k��,5.5,45,,
2016/12/9,12:00:00,12,��,3.9,-2.8,95.2,0,0.04,13,���k��,6.8,21,,
2016/12/9,13:00:00,13,���k��,5,-2.7,96.6,0,0.08,13,���k��,9,8,,
2016/12/9,14:00:00,14,�k��,3.4,-1.5,95.3,0,0.15,14,�k��,9.4,17,,
2016/12/9,15:00:00,14,�k��,3.1,-0.9,89.3,0,0.09,1,�k�k��,7.5,39,,
2016/12/9,16:00:00,14,�k��,2.9,-1.2,88.9,0,0.02,15,�k�k��,5.2,22,,
2016/12/9,17:00:00,14,�k��,4,-0.4,90.7,0,0,12,��,6.9,59,,
2016/12/9,18:00:00,14,�k��,3.7,0.2,88,0,0,14,�k��,6.5,45,,
2016/12/9,19:00:00,14,�k��,2.6,-0.1,85.2,0,0,16,�k,7.3,17,,
2016/12/9,20:00:00,14,�k��,2.8,-0.4,82.1,1,0,15,�k�k��,6.6,41,,
2016/12/9,21:00:00,14,�k��,2.1,-0.9,80.8,1,0,14,�k��,4.7,26,,
2016/12/9,22:00:00,13,���k��,2,-1.5,84.4,0.5,0,1,�k�k��,3.8,0,,
2016/12/9,23:00:00,14,�k��,1.5,-2,85.7,0.5,0,13,���k��,4,18,,
2016/12/9,0:00:00,13,���k��,1.1,-6.1,82.8,0.5,0,14,�k��,3,59,,
2016/12/10,1:00:00,14,�k��,1.4,-7.9,86,0,0,13,���k��,2.8,0,,
2016/12/10,2:00:00,14,�k��,1.7,-6.6,93.9,0,0,14,�k��,3.8,31,,
2016/12/10,3:00:00,13,���k��,1.5,-6.7,95.7,0,0,12,��,4,15,,
2016/12/10,4:00:00,13,���k��,2.5,-7.2,95,0,0,13,���k��,3.5,59,,
2016/12/10,5:00:00,13,���k��,2.5,-9.1,95.3,0,0,13,���k��,4.8,33,,
2016/12/10,6:00:00,13,���k��,2,-7.8,95.9,0,0,4,��,2.9,13,,
2016/12/10,7:00:00,13,���k��,1.3,-5.2,96.6,0,0.01,13,���k��,3.3,12,,
2016/12/10,8:00:00,12,��,1.6,-2.9,95.4,0,0.04,13,���k��,3,43,,
2016/12/10,9:00:00,14,�k��,1.5,-1.3,84.3,0,0.13,14,�k��,3.8,14,,
2016/12/10,10:00:00,13,���k��,1.7,-0.2,57.4,0,0.4,14,�k��,3.4,11,,
2016/12/10,11:00:00,2,�k��,2.1,-0.1,52.7,0,0.4,14,�k��,4.4,7,,
2016/12/10,12:00:00,2,�k��,2.3,-0.3,65.4,0.5,0.19,2,�k��,3.9,27,,
2016/12/10,13:00:00,15,�k�k��,1,-1.6,78.1,0.5,0.11,15,�k�k��,5.3,7,,
2016/12/10,14:00:00,14,�k��,1.6,-0.9,56.5,0.5,0.2,14,�k��,4.1,39,,
2016/12/10,15:00:00,14,�k��,2.8,-1.4,41,0,0.24,14,�k��,6.2,45,,
2016/12/10,16:00:00,15,�k�k��,4.9,-3.1,48.7,0,0.05,16,�k,9.3,25,,
2016/12/10,17:00:00,15,�k�k��,4.5,-3.4,53.7,0,0,4,��,10.1,11,,
2016/12/10,18:00:00,14,�k��,2,-4.9,57.1,0,0,1,�k�k��,7.1,2,,
2016/12/10,19:00:00,13,���k��,1.8,-7.5,60.7,0,0,15,�k�k��,4.5,4,,
2016/12/10,20:00:00,13,���k��,2.7,-8.2,71.8,0,0,13,���k��,4.5,56,,
2016/12/10,21:00:00,12,��,3.3,-8.8,74.5,0,0,12,��,5.2,58,,
2016/12/10,22:00:00,12,��,3.6,-11.2,73.6,0,0,12,��,5.9,14,,
2016/12/10,23:00:00,12,��,3.6,-8.7,78.4,0,0,1,�k�k��,5.9,37,,
2016/12/10,0:00:00,10,�쐼,0.7,-10.3,74.7,0,0,12,��,5.5,0,,
2016/12/11,1:00:00,12,��,2.2,-16,72.6,0,0,12,��,2.8,12,,
2016/12/11,2:00:00,13,���k��,3.2,-10.8,91.7,0,0,12,��,4.8,51,,
2016/12/11,3:00:00,13,���k��,2.1,-12.7,83,0,0,13,���k��,4.6,38,,
2016/12/11,4:00:00,13,���k��,3.3,-10.6,88.5,0,0,13,���k��,4.5,43,,
2016/12/11,5:00:00,13,���k��,3.3,-11.4,85.5,0,0.01,14,�k��,5,54,,
2016/12/11,6:00:00,12,��,2.6,-16.7,73.3,0,0.01,13,���k��,4.6,16,,
2016/12/11,7:00:00,12,��,2.4,-18.7,79,0,0.01,12,��,3.5,6,,
2016/12/11,8:00:00,13,���k��,2.5,-14,83.7,0,0.13,8,��,3.1,58,,
2016/12/11,9:00:00,12,��,3.1,-8.8,66.6,0,0.29,13,���k��,4.4,57,,
2016/12/11,10:00:00,13,���k��,2.4,-5.5,47.2,0,0.43,14,�k��,4,47,,
2016/12/11,11:00:00,13,���k��,3.4,-3.4,35.2,0,0.5,14,�k��,6.3,58,,
2016/12/11,12:00:00,14,�k��,3.4,-3.2,34.6,0,0.52,6,�쓌,7.2,10,,
2016/12/11,13:00:00,14,�k��,3.7,-3,36.9,0,0.48,13,���k��,6.7,38,,
2016/12/11,14:00:00,15,�k�k��,5.3,-4,47.6,0,0.38,13,���k��,11,50,,
2016/12/11,15:00:00,15,�k�k��,3.8,-4.7,48.7,0,0.23,15,�k�k��,9.1,24,,
2016/12/11,16:00:00,14,�k��,3.5,-5.7,50.9,0,0.06,1,�k�k��,9.7,1,,
2016/12/11,17:00:00,14,�k��,3.7,-5.6,51.6,0,0,13,���k��,7.8,40,,
2016/12/11,18:00:00,14,�k��,3.9,-6,53.9,0,0,13,���k��,9.4,50,,
2016/12/11,19:00:00,14,�k��,2.2,-7.2,57.2,0,0,11,���쐼,6.4,19,,
2016/12/11,20:00:00,12,��,2.3,-8.1,59.5,0,0,12,��,4.1,6,,
2016/12/11,21:00:00,12,��,1.9,-9.2,61,0,0,6,�쓌,3.8,40,,
2016/12/11,22:00:00,12,��,2.2,-9.6,70.5,0,0,13,���k��,4.7,48,,
2016/12/11,23:00:00,12,��,3.4,-11.6,67.6,0,0,12,��,4,59,,
2016/12/11,0:00:00,13,���k��,2.4,-12.7,70.2,0,0,13,���k��,4.1,2,,
2016/12/12,1:00:00,11,���쐼,2.7,-14.2,61.3,0,0,12,��,4.4,22,,
2016/12/12,2:00:00,11,���쐼,2.8,-15.2,69.4,0,0,10,�쐼,4.9,16,,
2016/12/12,3:00:00,12,��,0.9,-16.6,69.5,0,0,12,��,4.2,4,,
2016/12/12,4:00:00,11,���쐼,2.5,-16.6,74,0,0,9,��쐼,4.5,40,,
2016/12/12,5:00:00,12,��,2.1,-17.1,70.3,0,0,12,��,4.3,20,,
2016/12/12,6:00:00,10,�쐼,1,-20.3,71.6,0,0.01,12,��,4.6,11,,
2016/12/12,7:00:00,11,���쐼,2.5,-18.4,81.7,0,0.01,12,��,4,47,,
2016/12/12,8:00:00,11,���쐼,1.2,-14.6,79.1,0,0.12,12,��,4.5,23,,
2016/12/12,9:00:00,12,��,2.5,-5.8,47.7,0,0.29,12,��,4.2,59,,
2016/12/12,10:00:00,12,��,2.7,-3.2,40,0,0.42,10,�쐼,5.7,5,,
2016/12/12,11:00:00,13,���k��,3.8,-1.3,37.1,0,0.5,10,�쐼,8,57,,
2016/12/12,12:00:00,12,��,4.9,-0.5,35.9,0,0.52,3,���k��,7.8,38,,
2016/12/12,13:00:00,13,���k��,2.9,-0.5,36.7,0,0.48,1,�k�k��,6.6,1,,
2016/12/12,14:00:00,13,���k��,2,-0.5,31.6,0,0.38,14,�k��,4.8,1,,
2016/12/12,15:00:00,10,�쐼,1.1,-2.3,37.2,0,0.23,13,���k��,5.2,7,,
2016/12/12,16:00:00,13,���k��,0.8,-5.8,49.2,0,0.06,8,��,2.7,3,,
2016/12/12,17:00:00,16,�k,0.6,-8.9,58.6,0,0,13,���k��,1.9,38,,
2016/12/12,18:00:00,13,���k��,1,-10,72,0,0,13,���k��,1.5,0,,
2016/12/12,19:00:00,13,���k��,1.9,-7.8,83.3,0,0,12,��,3.3,39,,
2016/12/12,20:00:00,12,��,3.1,-10.7,75.9,0,0,13,���k��,3.9,43,,
2016/12/12,21:00:00,12,��,2.8,-7.6,82.8,0,0,13,���k��,4.1,55,,
2016/12/12,22:00:00,12,��,2,-11.5,81.5,0,0,14,�k��,4,46,,
2016/12/12,23:00:00,12,��,1.8,-10.7,83.1,0,0,12,��,3.1,25,,
2016/12/12,0:00:00,12,��,1.6,-14.4,79.1,0,0,13,���k��,3.1,11,,
2016/12/13,1:00:00,12,��,2.4,-13,86.3,0,0,12,��,3.3,13,,
2016/12/13,2:00:00,12,��,2,-13.6,87.1,0,0,12,��,3.2,52,,
2016/12/13,3:00:00,12,��,2.1,-9.2,90.9,0,0,13,���k��,4.5,58,,
2016/12/13,4:00:00,13,���k��,2.5,-7.5,84.4,0,0,3,���k��,5.7,9,,
2016/12/13,5:00:00,13,���k��,2.5,-6.5,78.7,0,0,1,�k�k��,3.7,21,,
2016/12/13,6:00:00,13,���k��,1.8,-6,74.9,0,0,14,�k��,3.8,31,,
2016/12/13,7:00:00,13,���k��,2.5,-6.6,83.5,0,0,14,�k��,4.2,22,,
2016/12/13,8:00:00,14,�k��,2.1,-5.9,90.7,0,0.03,11,���쐼,3.8,33,,
2016/12/13,9:00:00,14,�k��,2.6,-5.7,90.2,0,0.06,8,��,5.4,52,,
2016/12/13,10:00:00,13,���k��,2.4,-5.2,88.7,0,0.13,11,���쐼,5,8,,
2016/12/13,11:00:00,13,���k��,2.2,-5,81.7,0,0.2,13,���k��,4.8,45,,
2016/12/13,12:00:00,14,�k��,2.5,-4.2,79.9,0,0.21,14,�k��,4.5,31,,
2016/12/13,13:00:00,13,���k��,2.6,-4,78.6,0.5,0.23,14,�k��,4.9,41,,
2016/12/13,14:00:00,13,���k��,3.9,-4.2,82.4,0,0.12,14,�k��,6.6,51,,
2016/12/13,15:00:00,15,�k�k��,0.7,-4.8,81.2,0,0.11,14,�k��,6.8,15,,
2016/12/13,16:00:00,14,�k��,0.9,-8.4,77.2,0,0.04,4,��,3.6,3,,
2016/12/13,17:00:00,11,���쐼,1,-9.8,81.8,0,0,13,���k��,3.8,17,,
2016/12/13,18:00:00,12,��,2.1,-12.3,86.4,0,0,12,��,3.1,53,,
2016/12/13,19:00:00,13,���k��,1.9,-9,93,0,0,13,���k��,4.1,56,,
2016/12/13,20:00:00,12,��,2.6,-11.9,92.5,0,0,12,��,4.4,45,,
2016/12/13,21:00:00,12,��,0.4,-10.4,92.5,0,0,11,���쐼,4.3,0,,
2016/12/13,22:00:00,12,��,1.1,-13.3,89.5,0,0,12,��,3.5,19,,
2016/12/13,23:00:00,13,���k��,1.2,-14.4,92.4,0,0,12,��,4,22,,
2016/12/13,0:00:00,12,��,1.8,-15,90.5,0,0,12,��,3.1,31,,
2016/12/14,1:00:00,12,��,1.6,-12.6,93.3,0,0,12,��,3.1,32,,
2016/12/14,2:00:00,12,��,1.5,-13.9,92,0,0,12,��,2.9,11,,
2016/12/14,3:00:00,13,���k��,2.8,-7.6,96.4,0,0,12,��,4.2,55,,
2016/12/14,4:00:00,13,���k��,2.5,-6.5,96.4,0,0,4,��,4.2,0,,
2016/12/14,5:00:00,14,�k��,2.9,-6,95.2,0,0,14,�k��,4.3,53,,
2016/12/14,6:00:00,14,�k��,2.6,-6,92,0,0,14,�k��,4.6,49,,
2016/12/14,7:00:00,14,�k��,2.6,-5,91.6,0,0.01,14,�k��,4.6,47,,
2016/12/14,8:00:00,14,�k��,2,-4.4,91.5,0,0.03,14,�k��,4.6,40,,
2016/12/14,9:00:00,14,�k��,2.5,-3.6,90,0,0.04,14,�k��,5.7,37,,
2016/12/14,10:00:00,14,�k��,3.1,-3.2,88.3,0,0.1,14,�k��,5.8,55,,
2016/12/14,11:00:00,14,�k��,2.2,-2.8,83.9,0,0.15,14,�k��,6,36,,
2016/12/14,12:00:00,14,�k��,3.1,-2.6,78,0,0.26,15,�k�k��,5.6,4,,
2016/12/14,13:00:00,14,�k��,3.3,-2.5,80.5,0,0.2,14,�k��,5.3,53,,
2016/12/14,14:00:00,14,�k��,3.7,-2.4,80.9,0,0.2,14,�k��,6.2,19,,
2016/12/14,15:00:00,14,�k��,2.4,-2.5,81.6,0,0.12,13,���k��,6.2,17,,
2016/12/14,16:00:00,14,�k��,2.6,-2.6,81.6,0,0.03,14,�k��,4.6,56,,
2016/12/14,17:00:00,14,�k��,2.6,-2.7,82.2,0,0,13,���k��,5,38,,
2016/12/14,18:00:00,14,�k��,3.2,-2.8,83.2,0,0,14,�k��,5.9,58,,
2016/12/14,19:00:00,14,�k��,3.1,-3.5,80.5,0,0,2,�k��,6.1,19,,
2016/12/14,20:00:00,14,�k��,2.4,-4,80.7,0,0,15,�k�k��,4.8,40,,
2016/12/14,21:00:00,14,�k��,2.8,-3.9,79.5,0,0,14,�k��,5.6,58,,
2016/12/14,22:00:00,1,�k�k��,2.8,-4.8,75.4,0,0,1,�k�k��,5.8,59,,
2016/12/14,23:00:00,14,�k��,1.6,-6.5,76.5,0,0,2,�k��,5.8,9,,
2016/12/14,0:00:00,13,���k��,2,-10.4,83.2,0,0,12,��,3.4,23,,
2016/12/15,1:00:00,13,���k��,1.7,-14.3,83.8,0,0,16,�k,2.5,40,,
2016/12/15,2:00:00,12,��,1.9,-14,88.8,0,0,14,�k��,2.6,5,,
2016/12/15,3:00:00,13,���k��,1.8,-13.7,89.7,0,0,12,��,2.6,13,,
2016/12/15,4:00:00,15,�k�k��,0.7,-14.8,90.6,0,0,13,���k��,3.7,27,,
2016/12/15,5:00:00,13,���k��,2.5,-16.1,91.2,0,0,13,���k��,4.2,56,,
2016/12/15,6:00:00,12,��,2.5,-13.9,91,0,0,12,��,4.1,46,,
2016/12/15,7:00:00,12,��,2.6,-14.9,91.8,0,0.01,13,���k��,3.8,16,,
2016/12/15,8:00:00,12,��,3.1,-17,88.7,0,0.12,12,��,3.6,52,,
2016/12/15,9:00:00,11,���쐼,1.3,-11.9,90.7,0,0.28,12,��,3.2,1,,
2016/12/15,10:00:00,13,���k��,1.9,-5.6,43.7,0,0.42,13,���k��,3.5,36,,
2016/12/15,11:00:00,13,���k��,1.6,-5,31.2,0,0.49,15,�k�k��,4.4,11,,
2016/12/15,12:00:00,14,�k��,0.7,-3.7,31.9,0,0.51,14,�k��,3.6,27,,
2016/12/15,13:00:00,16,�É�,0,-3.2,28.8,0.5,0.48,1,�k�k��,1.9,14,,
2016/12/15,14:00:00,6,�쓌,1.5,-2.5,35,0,0.36,6,�쓌,2.7,55,,
2016/12/15,15:00:00,7,��쓌,0.9,-3.1,38.4,0,0.18,6,�쓌,2.2,5,,
2016/12/15,16:00:00,16,�É�,0,-9.7,57.8,0,0.03,7,��쓌,1.1,0,,
2016/12/15,17:00:00,11,���쐼,0.5,-8,70.7,0,0,11,���쐼,2,48,,
2016/12/15,18:00:00,16,�k,0.5,-7.1,79.3,0,0,1,�k�k��,1.7,41,,
2016/12/15,19:00:00,13,���k��,2.5,-5.7,79.5,0,0,3,���k��,3.9,59,,
2016/12/15,20:00:00,13,���k��,1.8,-5.8,79.2,0,0,13,���k��,5,34,,
2016/12/15,21:00:00,13,���k��,3,-6.8,82.8,0,0,4,��,4.9,57,,
2016/12/15,22:00:00,13,���k��,3.6,-7.2,80.1,0,0,14,�k��,6.9,36,,
2016/12/15,23:00:00,13,���k��,2.2,-8.9,81.3,0,0,13,���k��,5.7,0,,
2016/12/15,0:00:00,14,�k��,2,-8.2,86.5,0,0,12,��,5.9,28,,
2016/12/16,1:00:00,12,��,1.4,-8.3,86.8,0,0,13,���k��,3.2,14,,
2016/12/16,2:00:00,13,���k��,3.4,-8.1,88.1,0,0,14,�k��,7,10,,
2016/12/16,3:00:00,13,���k��,1.6,-9.4,86.9,0,0,13,���k��,5.8,0,,
2016/12/16,4:00:00,12,��,1.4,-13.5,87.2,0,0,13,���k��,3.9,21,,
2016/12/16,5:00:00,12,��,2.4,-12.4,89.7,0,0,12,��,3.6,51,,
2016/12/16,6:00:00,15,�k�k��,0.9,-11.5,91.9,0,0,8,��,2.5,15,,
2016/12/16,7:00:00,12,��,0.9,-15.1,88,0,0.01,13,���k��,2.4,24,,
2016/12/16,8:00:00,13,���k��,2.7,-12.5,92.4,0,0.09,16,�k,3.6,50,,
2016/12/16,9:00:00,10,�쐼,2.1,-10.6,74.5,0,0.23,11,���쐼,3.1,55,,
2016/12/16,10:00:00,11,���쐼,0.8,-8.3,49.7,0,0.36,10,�쐼,2.2,17,,
2016/12/16,11:00:00,16,�É�,0,-5.5,34.8,0,0.47,11,���쐼,1.2,3,,
2016/12/16,12:00:00,3,���k��,0.4,-2,30.1,0,0.51,4,��,1.4,49,,
2016/12/16,13:00:00,3,���k��,0.8,-1.6,25.4,0,0.46,3,���k��,1.1,57,,
2016/12/16,14:00:00,8,��,1,-3.1,32.6,0,0.37,6,�쓌,2,23,,
2016/12/16,15:00:00,9,��쐼,0.9,-4.5,39.5,0,0.2,8,��,2,40,,
2016/12/16,16:00:00,13,���k��,0.6,-8.5,58.8,0,0.03,11,���쐼,1.6,17,,
2016/12/16,17:00:00,13,���k��,2.4,-8,70.6,0,0,13,���k��,3.1,58,,
2016/12/16,18:00:00,14,�k��,0.7,-11.6,65.5,0,0,14,�k��,5.5,23,,
2016/12/16,19:00:00,13,���k��,2,-9,81.8,0,0,13,���k��,4.4,57,,